Change the Weather History Date:

Sunday, October 28, 2012

  Actual Average (KLCH) Record (KLCH)
Temperature  
Mean Temperature 50 °F 67 °F  
Max Temperature 63 °F 78 °F 92 °F (1927)
Min Temperature 38 °F 56 °F 35 °F (1898)
Degree Days  
Heating Degree Days 14 2  
Month to date heating degree days 26  
Since 1 July heating degree days 27  
Cooling Degree Days 0 4  
Month to date cooling degree days 182  
Year to date cooling degree days 2722  
Moisture  
Dew Point 36 °F    
Average Humidity 63    
Maximum Humidity 91    
Minimum Humidity 30    
Precipitation  
Precipitation 0.00 in 0.17 in 3.24 in (1985)
Month to date precipitation 4.39  
Year to date precipitation 47.87  
Snow  
Snow - 0.00 in 0.00 in ()
Month to date snowfall 0.0  
Since 1 July snowfall 0.0  
Since 1 September snowfall 0.0  
Snow Depth -    
Sea Level Pressure  
Sea Level Pressure 30.15 in    
Wind  
Wind Speed 6 mph ()    
Max Wind Speed 18 mph    
Max Gust Speed 25 mph    
Visibility 9.9 miles    
Events      
T = Trace of Precipitation, MM = Missing Value Source: Averaged Metar Reports

Daily Weather History Graph

Daily Weather History Graph

Search for Another Location

Airport or City:

Trip Planner

Search our weather history database for the weather conditions in past years. The results will help you decide how hot, cold, wet, or windy it might be!

Date:

Astronomy

Oct. 28, 2012 Rise Set
Actual Time 7:22 AM CDT 6:26 PM CDT
Civil Twilight 6:57 AM CDT 6:50 PM CDT
Nautical Twilight 6:29 AM CDT 7:19 PM CDT
Astronomical Twilight 6:01 AM CDT 7:47 PM CDT
Moon 5:43 PM CDT (10/28) 6:17 AM CDT (10/28)
Length of Visible Light 11h 53m
Length of Day
11h 03m
Waxing Gibbous, 99% of the Moon is Illuminated
Oct 28
Waxing Gibbous
Oct 29
Full
Nov 6
Last Quarter
Nov 13
New
Nov 20
First Quarter

Hourly Weather History & Observations

Time (CDT) Temp. Windchill Dew Point Humidity Pressure Visibility Wind Dir Wind Speed Gust Speed Precip Events Conditions
12:15 AM 44.6 °F 41.4 °F 40.1 °F 84% 30.14 in 10.0 mi North 5.8 mph - N/A   Clear
12:35 AM 44.2 °F 42.7 °F 39.7 °F 84% 30.14 in 10.0 mi North 3.5 mph - N/A   Clear
12:55 AM 44.1 °F 41.5 °F 39.4 °F 84% 30.14 in 10.0 mi North 4.6 mph - N/A   Clear
1:15 AM 44.1 °F 40.8 °F 39.2 °F 83% 30.14 in 10.0 mi North 5.8 mph - N/A   Clear
1:35 AM 43.5 °F 40.9 °F 39.2 °F 85% 30.14 in 10.0 mi North 4.6 mph - N/A   Clear
1:55 AM 43.2 °F 40.5 °F 38.5 °F 84% 30.13 in 10.0 mi North 4.6 mph - N/A   Clear
2:15 AM 42.8 °F 40.1 °F 38.3 °F 84% 30.13 in 10.0 mi North 4.6 mph - N/A   Clear
2:35 AM 41.9 °F 40.0 °F 38.5 °F 88% 30.13 in 10.0 mi NNW 3.5 mph - N/A   Clear
2:55 AM 41.2 °F 38.2 °F 38.3 °F 89% 30.13 in 10.0 mi NNW 4.6 mph - N/A   Clear
3:15 AM 41.0 °F 39.0 °F 37.8 °F 88% 30.13 in 10.0 mi NNW 3.5 mph - N/A   Clear
3:35 AM 41.0 °F 38.0 °F 37.6 °F 88% 30.13 in 10.0 mi NNW 4.6 mph - N/A   Clear
3:55 AM 41.0 °F 39.0 °F 37.8 °F 88% 30.13 in 10.0 mi NW 3.5 mph - N/A   Clear
4:15 AM 40.6 °F 38.6 °F 37.9 °F 90% 30.13 in 10.0 mi WNW 3.5 mph - N/A   Clear
4:35 AM 40.6 °F 38.6 °F 37.8 °F 89% 30.14 in 10.0 mi NW 3.5 mph - N/A   Clear
4:55 AM 40.3 °F 38.2 °F 37.6 °F 90% 30.14 in 10.0 mi NW 3.5 mph - N/A   Clear
5:15 AM 39.9 °F 37.8 °F 37.4 °F 91% 30.14 in 10.0 mi NW 3.5 mph - N/A   Clear
5:35 AM 40.1 °F 36.9 °F 37.0 °F 89% 30.14 in 10.0 mi NNW 4.6 mph - N/A   Clear
5:55 AM 39.7 °F 37.6 °F 36.9 °F 89% 30.14 in 10.0 mi NNW 3.5 mph - N/A   Clear
6:15 AM 39.2 °F 35.9 °F 36.5 °F 90% 30.14 in 10.0 mi NNW 4.6 mph - N/A   Clear
6:35 AM 39.2 °F - 36.5 °F 90% 30.15 in 10.0 mi Calm Calm - N/A   Clear
6:55 AM 38.7 °F 35.2 °F 36.1 °F 91% 30.15 in 10.0 mi NNW 4.6 mph - N/A   Clear
7:15 AM 38.7 °F 34.3 °F 35.8 °F 89% 30.16 in 10.0 mi NNW 5.8 mph - N/A   Clear
7:35 AM 38.7 °F 34.3 °F 35.8 °F 89% 30.16 in 10.0 mi NNW 5.8 mph - N/A   Clear
7:55 AM 39.4 °F 33.8 °F 36.5 °F 89% 30.17 in 10.0 mi NNW 8.1 mph - N/A   Clear
8:15 AM 40.8 °F 36.9 °F 37.4 °F 88% 30.18 in 5.0 mi North 5.8 mph - N/A   Clear
8:35 AM 42.4 °F 37.5 °F 37.8 °F 83% 30.19 in 7.0 mi North 8.1 mph - N/A   Clear
8:55 AM 44.2 °F 39.2 °F 37.8 °F 78% 30.19 in 10.0 mi North 9.2 mph - N/A   Clear
9:15 AM 46.0 °F 40.6 °F 38.3 °F 74% 30.19 in 10.0 mi North 11.5 mph - N/A   Clear
9:35 AM 47.8 °F - 38.5 °F 70% 30.19 in 10.0 mi NNE 9.2 mph 16.1 mph N/A   Clear
9:55 AM 50.2 °F - 37.9 °F 63% 30.19 in 10.0 mi North 9.2 mph - N/A   Clear
10:15 AM 52.5 °F - 36.9 °F 55% 30.19 in 10.0 mi North 11.5 mph 16.1 mph N/A   Clear
10:35 AM 54.0 °F - 35.6 °F 50% 30.19 in 10.0 mi NNE 12.7 mph 16.1 mph N/A   Clear
10:55 AM 55.0 °F - 36.0 °F 49% 30.19 in 10.0 mi North 10.4 mph - N/A   Clear
11:15 AM 56.3 °F - 35.1 °F 45% 30.19 in 10.0 mi North 12.7 mph 20.7 mph N/A   Clear
11:35 AM 56.3 °F - 34.3 °F 44% 30.18 in 10.0 mi North 15.0 mph 21.9 mph N/A   Clear
11:55 AM 57.4 °F - 33.1 °F 40% 30.18 in 10.0 mi North 18.4 mph 21.9 mph N/A   Clear
12:15 PM 57.9 °F - 33.8 °F 40% 30.17 in 10.0 mi North 15.0 mph 19.6 mph N/A   Clear
12:35 PM 58.5 °F - 34.0 °F 40% 30.17 in 10.0 mi North 11.5 mph 20.7 mph N/A   Clear
12:55 PM 60.1 °F - 32.9 °F 36% 30.15 in 10.0 mi North 16.1 mph 20.7 mph N/A   Clear
1:15 PM 61.0 °F - 33.8 °F 36% 30.15 in 10.0 mi North 13.8 mph 19.6 mph N/A   Clear
1:35 PM 61.2 °F - 32.4 °F 34% 30.14 in 10.0 mi North 12.7 mph 20.7 mph N/A   Clear
1:55 PM 61.7 °F - 32.0 °F 33% 30.13 in 10.0 mi North 13.8 mph 25.3 mph N/A   Clear
2:15 PM 63.1 °F - 31.8 °F 31% 30.12 in 10.0 mi North 15.0 mph 23.0 mph N/A   Clear
2:35 PM 62.6 °F - 31.8 °F 32% 30.12 in 10.0 mi NNW 16.1 mph 23.0 mph N/A   Clear
2:55 PM 63.3 °F - 30.9 °F 30% 30.11 in 10.0 mi North 15.0 mph 20.7 mph N/A   Clear
3:15 PM 63.7 °F - 32.5 °F 31% 30.11 in 10.0 mi NNW 11.5 mph 18.4 mph N/A   Clear
3:35 PM 63.1 °F - 31.6 °F 31% 30.10 in 10.0 mi NNW 12.7 mph 23.0 mph N/A   Clear
3:55 PM 63.7 °F - 32.9 °F 32% 30.10 in 10.0 mi North 15.0 mph 21.9 mph N/A   Clear
4:15 PM 63.3 °F - 31.1 °F 30% 30.10 in 10.0 mi North 15.0 mph 20.7 mph N/A   Clear
4:35 PM 63.0 °F - 31.1 °F 30% 30.10 in 10.0 mi North 11.5 mph 19.6 mph N/A   Clear
4:55 PM 62.6 °F - 30.2 °F 30% 30.10 in 10.0 mi North 17.3 mph - N/A   Clear
5:15 PM 62.2 °F - 32.0 °F 32% 30.11 in 10.0 mi North 11.5 mph - N/A   Clear
5:35 PM 61.3 °F - 32.0 °F 33% 30.11 in 10.0 mi North 11.5 mph 16.1 mph N/A   Clear
5:55 PM 60.3 °F - 32.9 °F 36% 30.12 in 10.0 mi North 11.5 mph - N/A   Clear
6:15 PM 58.8 °F - 33.3 °F 38% 30.12 in 10.0 mi North 8.1 mph - N/A   Clear
6:35 PM 56.8 °F - 33.3 °F 41% 30.13 in 10.0 mi North 8.1 mph - N/A   Clear
6:55 PM 54.5 °F - 34.7 °F 47% 30.13 in 10.0 mi North 5.8 mph - N/A   Clear
7:15 PM 53.2 °F - 35.4 °F 51% 30.14 in 10.0 mi North 3.5 mph - N/A   Clear
7:35 PM 52.2 °F - 36.5 °F 55% 30.14 in 10.0 mi Calm Calm - N/A   Clear
7:55 PM 51.4 °F - 36.9 °F 58% 30.15 in 10.0 mi Calm Calm - N/A   Clear
8:15 PM 50.4 °F - 37.6 °F 62% 30.16 in 10.0 mi NNW 3.5 mph - N/A   Clear
8:35 PM 50.4 °F - 37.4 °F 61% 30.17 in 10.0 mi Calm Calm - N/A   Clear
8:55 PM 49.5 °F - 38.5 °F 66% 30.18 in 10.0 mi Calm Calm - N/A   Clear
9:15 PM 48.2 °F - 38.5 °F 69% 30.18 in 10.0 mi Calm Calm - N/A   Clear
9:35 PM 47.7 °F - 38.1 °F 70% 30.19 in 10.0 mi Calm Calm - N/A   Clear
9:55 PM 47.3 °F - 38.3 °F 71% 30.19 in 10.0 mi Calm Calm - N/A   Clear
10:35 PM 46.4 °F - 37.6 °F 71% 30.20 in 10.0 mi Calm Calm - N/A   Clear
10:55 PM 45.9 °F - 38.3 °F 75% 30.20 in 10.0 mi Calm Calm - N/A   Clear
11:15 PM 45.7 °F - 38.3 °F 75% 30.20 in 10.0 mi Calm Calm - N/A   Clear
11:55 PM 45.3 °F 44.0 °F 38.3 °F 76% 30.20 in 10.0 mi North 3.5 mph - N/A   Clear